Monatsübersicht für August 2018

 
Wetter
Zeitraffer
Tageslänge (hh:mm)
Höchsttemperatur in °C
Uhrzeit
Tiefsttemperatur in °C
Uhrzeit
Luftfeuchte (max., in %)
Uhrzeit
Luftfeuchte (min., in %)
Uhrzeit
Luftdruck (max., in hPa)
Uhrzeit
Luftdruck (min., in hPa)
Uhrzeit
Luftdruck (Ø, in hPa)
Regenrate (max, mm/h)
Uhrzeit
Niederschlag in mm
Verdunstung in mm
Solar in W/m² (Ø)
Solar in W/m² (max.)
UV-Index (max.)
Sonnenscheindauer (hh:mm)
Windrichtung (Ø)
Windstärke (Ø in km/h)
Windstärke (Ø in bft)
Windböe (max., in km/h)
Uhrzeit
Windböe (max., in bft)
Uhrzeit
Taupunkt (max., in °C)
Uhrzeit
Taupunkt (min., in °C)
Uhrzeit
Windchill (min., in °C)
Uhrzeit
Gewitterindex (max.)
Uhrzeit
01
15:36
33.7
12:55 Uhr
21.7
03:20 Uhr

78
23:45 Uhr
42
12:55 Uhr
1020.6
23:35 Uhr

1016.5
01:15 Uhr
1018.7
0,000
00:00 Uhr
0,000
5.080
358
826
12:25 Uhr
6.0
12:10 Uhr

10:10:00
6,2
1
25,7
10:20 Uhr

4
20.5
11:00 Uhr
15.8
00:05 Uhr
20.4
03:20 Uhr
15
23:35 Uhr
02
15:32
33.5
13:45 Uhr
21.2
06:50 Uhr

86
02:45 Uhr
36
13:45 Uhr
1023.3
10:30 Uhr

1019.7
01:25 Uhr
1021.9
0,000
00:00 Uhr
0,000
5.207
369
920
11:55 Uhr
7.1
13:35 Uhr

10:40:00
7,4
2
25,7
03:05 Uhr

4
20.6
00:10 Uhr
14.2
23:45 Uhr
20.5
03:05 Uhr
15
00:00 Uhr
03
15:28
34.3
14:15 Uhr
19.7
05:50 Uhr

71
05:50 Uhr
29
13:45 Uhr
1023.7
08:20 Uhr

1019.1
19:10 Uhr
1021.7
0,000
00:00 Uhr
0,000
5.791
441
802
13:35 Uhr
6.8
13:15 Uhr

12:10:00
4,0
1
20,9
13:15 Uhr

4
16.0
08:05 Uhr
12.0
15:10 Uhr
19.7
05:50 Uhr
10
21:45 Uhr
04
15:26
35.5
15:00 Uhr
17.1
05:35 Uhr

80
05:35 Uhr
30
12:30 Uhr
1019.3
00:05 Uhr

1015.2
17:05 Uhr
1017.2
0,000
00:00 Uhr
0,000
5.410
410
925
12:25 Uhr
7.0
12:20 Uhr

11:35:00
3,8
1
27,4
20:55 Uhr

4
18.6
21:20 Uhr
13.4
04:15 Uhr
17.1
05:35 Uhr
13
21:35 Uhr
05
15:22
26.3
15:05 Uhr
14.1
23:50 Uhr

83
01:55 Uhr
41
14:55 Uhr
1020.2
22:55 Uhr

1017.0
00:00 Uhr
1019.0
0,000
00:00 Uhr
0,000
4.140
307
1008
13:30 Uhr
7.0
12:25 Uhr

06:50:00
6,2
1
32,2
13:10 Uhr

5
18.2
00:00 Uhr
10.6
17:40 Uhr
14.1
23:50 Uhr
12
00:00 Uhr
06
15:19
30.2
16:35 Uhr
11.1
06:00 Uhr

91
06:10 Uhr
33
16:30 Uhr
1020.7
08:00 Uhr

1015.9
19:35 Uhr
1018.6
0,000
00:00 Uhr
0,000
5.055
453
812
13:20 Uhr
6.5
13:05 Uhr

12:40:00
2,7
1
17,7
09:10 Uhr

3
14.8
08:40 Uhr
9.4
05:45 Uhr
11.1
06:00 Uhr
7
21:30 Uhr
07
15:15
36.3
16:55 Uhr
16.7
05:40 Uhr

70
05:35 Uhr
21
14:45 Uhr
1016.3
00:00 Uhr

1010.5
19:05 Uhr
1013.2
0,000
00:00 Uhr
0,000
5.842
435
803
13:20 Uhr
6.3
13:30 Uhr

12:10:00
4,8
1
27,4
23:25 Uhr

4
13.1
20:15 Uhr
8.4
15:25 Uhr
16.7
05:40 Uhr
6
21:30 Uhr
08
15:11
36.4
15:55 Uhr
21.8
06:00 Uhr

90
23:35 Uhr
24
14:55 Uhr
1013.4
22:40 Uhr

1008.8
17:00 Uhr
1010.5
2,400
22:10 Uhr
0,200
5.791
397
863
13:15 Uhr
5.9
12:50 Uhr

09:05:00
5,4
1
33,8
17:35 Uhr

5
21.2
23:20 Uhr
10.4
04:25 Uhr
21.8
06:00 Uhr
16
22:45 Uhr
09
15:08
33.1
16:00 Uhr
19.4
05:40 Uhr

91
05:30 Uhr
36
17:30 Uhr
1016.4
09:15 Uhr

1008.6
20:25 Uhr
1013.3
7,200
23:10 Uhr
1,400
5.563
418
755
13:25 Uhr
5.8
13:25 Uhr

11:30:00
7,0
1
49,9
22:15 Uhr

6
20.2
13:35 Uhr
15.8
17:30 Uhr
19.4
05:40 Uhr
15
00:00 Uhr
10
15:04
24.9
16:15 Uhr
14.3
23:50 Uhr

93
00:40 Uhr
37
17:45 Uhr
1022.3
21:55 Uhr

1010.8
00:00 Uhr
1018.6
2,400
06:10 Uhr
0,200
3.835
314
998
14:20 Uhr
6.4
13:40 Uhr

06:30:00
6,9
1
32,2
08:45 Uhr

5
20.2
00:05 Uhr
8.1
17:55 Uhr
14.3
23:50 Uhr
15
00:00 Uhr
11
15:00
23.2
16:25 Uhr
13.3
01:15 Uhr

83
01:20 Uhr
33
16:20 Uhr
1022.0
00:00 Uhr

1018.6
16:45 Uhr
1019.8
0,000
00:00 Uhr
0,000
4.369
321
943
11:55 Uhr
6.0
12:40 Uhr

06:55:00
7,7
2
38,6
17:40 Uhr

5
11.4
08:15 Uhr
5.8
16:20 Uhr
13.3
01:15 Uhr
3
01:30 Uhr
12
14:57
26.8
18:05 Uhr
9.2
05:40 Uhr

88
05:05 Uhr
26
18:05 Uhr
1020.7
00:00 Uhr

1012.0
23:50 Uhr
1017.3
0,000
00:00 Uhr
0,000
4.775
423
866
13:05 Uhr
6.0
13:05 Uhr

12:50:00
3,4
1
27,4
11:15 Uhr

4
11.1
08:25 Uhr
5.2
18:55 Uhr
9.2
05:40 Uhr
2
07:25 Uhr
13
14:53
32.0
14:55 Uhr
12.1
05:40 Uhr

80
05:35 Uhr
21
15:00 Uhr
1011.9
00:00 Uhr

1006.2
16:25 Uhr
1008.4
0,000
00:00 Uhr
0,000
4.216
348
909
14:40 Uhr
6.4
13:25 Uhr

08:00:00
2,8
1
35,4
17:55 Uhr

5
15.2
23:35 Uhr
5.9
15:30 Uhr
12.1
05:40 Uhr
9
23:05 Uhr
14
14:49
24.3
14:05 Uhr
16.3
06:10 Uhr

91
23:15 Uhr
53
12:50 Uhr
1013.6
23:50 Uhr

1007.3
01:35 Uhr
1009.8
2,400
22:45 Uhr
0,200
3.302
269
900
14:00 Uhr
5.7
12:45 Uhr

05:15:00
7,2
2
32,2
11:10 Uhr

5
17.0
23:15 Uhr
13.5
13:00 Uhr
16.3
06:10 Uhr
11
21:40 Uhr
15
14:46
25.3
15:40 Uhr
15.5
23:45 Uhr

91
01:55 Uhr
49
15:40 Uhr
1019.7
23:20 Uhr

1013.7
00:00 Uhr
1017.2
0,000
00:00 Uhr
0,000
3.251
272
1025
13:45 Uhr
5.9
13:35 Uhr

04:35:00
7,0
1
27,4
11:15 Uhr

4
16.6
00:00 Uhr
12.8
23:05 Uhr
14.4
06:45 Uhr
10
00:00 Uhr


 
Wetter
Zeitraffer
Tageslänge (hh:mm)
Höchsttemperatur in °C
Uhrzeit
Tiefsttemperatur in °C
Uhrzeit
Luftfeuchte (max., in %)
Uhrzeit
Luftfeuchte (min., in %)
Uhrzeit
Luftdruck (max., in hPa)
Uhrzeit
Luftdruck (min., in hPa)
Uhrzeit
Luftdruck (Ø, in hPa)
Regenrate (max, mm/h)
Uhrzeit
Niederschlag in mm
Verdunstung in mm
Solar in W/m² (Ø)
Solar in W/m² (max.)
UV-Index (max.)
Sonnenscheindauer (hh:mm)
Windrichtung (Ø)
Windstärke (Ø in km/h)
Windstärke (Ø in bft)
Windböe (max., in km/h)
Uhrzeit
Windböe (max., in bft)
Uhrzeit
Taupunkt (max., in °C)
Uhrzeit
Taupunkt (min., in °C)
Uhrzeit
Windchill (min., in °C)
Uhrzeit
Gewitterindex (max.)
Uhrzeit
16
14:42
28.9
17:10 Uhr
12.2
05:30 Uhr

92
04:15 Uhr
36
15:55 Uhr
1019.8
01:15 Uhr

1014.6
19:10 Uhr
1017.6
0,000
00:00 Uhr
0,000
4.623
414
755
13:35 Uhr
5.5
13:30 Uhr

12:00:00
3,5
1
25,7
14:10 Uhr

4
15.5
09:00 Uhr
10.9
05:25 Uhr
12.2
05:30 Uhr
7
22:15 Uhr
17
14:38
34.7
14:20 Uhr
17.3
06:15 Uhr

68
23:50 Uhr
28
14:20 Uhr
1018.2
23:50 Uhr

1013.3
16:20 Uhr
1014.7
0,000
00:00 Uhr
0,000
5.385
419
811
13:30 Uhr
5.4
13:25 Uhr

11:15:00
5,8
1
33,8
18:50 Uhr

5
17.2
19:10 Uhr
10.8
05:00 Uhr
17.3
06:15 Uhr
8
18:45 Uhr
18
14:35
27.7
14:20 Uhr
15.6
06:15 Uhr

91
06:05 Uhr
39
15:30 Uhr
1021.6
10:25 Uhr

1018.2
00:00 Uhr
1020.4
0,000
00:00 Uhr
0,000
4.166
377
967
13:00 Uhr
5.8
12:55 Uhr

09:30:00
3,5
1
24,1
14:45 Uhr

4
15.1
08:30 Uhr
10.7
11:30 Uhr
15.6
06:15 Uhr
8
00:00 Uhr
19
14:31
30.7
16:20 Uhr
11.3
06:10 Uhr

91
05:50 Uhr
30
15:55 Uhr
1021.6
09:00 Uhr

1015.6
23:40 Uhr
1019.4
0,000
00:00 Uhr
0,000
4.597
402
765
13:15 Uhr
5.6
13:00 Uhr

11:35:00
2,3
1
24,1
15:05 Uhr

4
14.4
21:05 Uhr
9.8
06:05 Uhr
11.3
06:10 Uhr
8
21:05 Uhr
20
14:27
23.7
15:50 Uhr
13.8
06:00 Uhr

86
23:25 Uhr
61
13:05 Uhr
1018.6
23:50 Uhr

1015.1
05:40 Uhr
1016.3
0,000
00:00 Uhr
0,000
2.184
173
445
12:55 Uhr
3.3
12:40 Uhr

01:05:00
5,1
1
29,0
14:00 Uhr

4
16.9
19:35 Uhr
11.3
05:55 Uhr
13.8
06:00 Uhr
10
21:00 Uhr
21
14:23
25.7
16:05 Uhr
13.3
23:05 Uhr

85
00:00 Uhr
35
17:20 Uhr
1022.4
10:15 Uhr

1018.6
00:05 Uhr
1021.0
0,000
00:00 Uhr
0,000
4.039
368
885
11:55 Uhr
5.5
13:35 Uhr

09:50:00
4,1
1
20,9
10:15 Uhr

4
15.8
00:00 Uhr
8.2
17:30 Uhr
13.3
23:05 Uhr
10
00:00 Uhr
22
14:19
28.6
15:25 Uhr
11.1
06:05 Uhr

87
05:55 Uhr
30
15:25 Uhr
1022.3
01:20 Uhr

1015.9
23:50 Uhr
1019.4
0,000
00:00 Uhr
0,000
4.547
421
752
12:50 Uhr
5.2
12:45 Uhr

11:15:00
3,1
1
27,4
14:05 Uhr

4
12.7
20:00 Uhr
8.1
16:45 Uhr
11.1
06:05 Uhr
5
20:55 Uhr
23
14:15
34.4
17:25 Uhr
12.6
04:35 Uhr

82
05:25 Uhr
27
17:15 Uhr
1016.0
00:05 Uhr

1007.7
18:55 Uhr
1011.7
0,000
00:00 Uhr
0,000
4.928
393
744
12:45 Uhr
5.0
13:10 Uhr

10:45:00
3,6
1
27,4
15:00 Uhr

4
18.4
23:00 Uhr
9.3
04:25 Uhr
12.6
04:35 Uhr
13
23:00 Uhr
24
14:12
24.8
12:05 Uhr
16.4
23:45 Uhr

89
04:30 Uhr
46
17:00 Uhr
1010.7
23:30 Uhr

1006.5
05:40 Uhr
1008.4
0,000
00:00 Uhr
0,000
3.150
254
720
12:00 Uhr
4.0
12:00 Uhr

05:05:00
6,3
1
38,6
13:25 Uhr

5
18.2
00:05 Uhr
8.4
19:55 Uhr
16.4
23:45 Uhr
12
00:00 Uhr
25
14:08
21.8
14:20 Uhr
10.9
23:05 Uhr

81
04:55 Uhr
39
14:25 Uhr
1012.0
23:40 Uhr

1007.5
14:15 Uhr
1009.5
0,000
00:00 Uhr
0,000
2.819
258
819
12:45 Uhr
4.4
12:35 Uhr

06:05:00
4,1
1
37,0
18:30 Uhr

5
11.1
09:00 Uhr
6.1
15:05 Uhr
10.9
23:05 Uhr
2
01:25 Uhr
26
14:03
21.4
16:55 Uhr
8.3
06:00 Uhr

93
06:30 Uhr
37
17:40 Uhr
1015.8
10:50 Uhr

1012.0
00:05 Uhr
1014.8
0,000
00:00 Uhr
0,000
3.480
348
821
11:35 Uhr
3.9
12:50 Uhr

08:05:00
4,8
1
29,0
12:45 Uhr

4
9.5
09:15 Uhr
5.5
17:40 Uhr
8.3
06:00 Uhr
0
00:00 Uhr
27
14:00
21.3
14:25 Uhr
10.1
00:00 Uhr

92
23:05 Uhr
38
11:40 Uhr
1015.5
00:00 Uhr

1011.1
13:05 Uhr
1013.0
2,400
22:05 Uhr
0,600
2.591
201
581
10:35 Uhr
3.0
12:35 Uhr

03:00:00
5,7
1
41,8
13:15 Uhr

6
14.4
23:05 Uhr
5.1
05:55 Uhr
10.1
00:00 Uhr
8
22:05 Uhr
28
13:56
23.2
14:55 Uhr
11.3
23:50 Uhr

95
04:45 Uhr
46
14:55 Uhr
1020.7
20:35 Uhr

1014.8
00:00 Uhr
1018.9
0,000
00:00 Uhr
0,000
2.921
293
768
13:15 Uhr
4.3
13:10 Uhr

05:50:00
4,2
1
24,1
13:20 Uhr

4
14.5
00:05 Uhr
9.2
23:50 Uhr
11.3
23:50 Uhr
8
00:00 Uhr
29
13:52
26.6
17:10 Uhr
9.9
05:55 Uhr

91
05:55 Uhr
36
14:25 Uhr
1020.6
00:45 Uhr

1012.8
23:00 Uhr
1016.7
0,000
00:00 Uhr
0,000
4.445
384
698
13:25 Uhr
4.2
12:55 Uhr

11:00:00
6,0
1
32,2
13:45 Uhr

5
11.2
08:35 Uhr
8.4
03:20 Uhr
9.9
05:55 Uhr
3
20:40 Uhr
30
13:48
20.1
00:00 Uhr
13.9
06:35 Uhr

94
13:35 Uhr
48
00:00 Uhr
1017.2
23:50 Uhr

1010.7
05:10 Uhr
1013.3
2,400
11:30 Uhr
0,600
1.245
91
297
11:45 Uhr
1.9
11:45 Uhr

00:20:00
6,2
1
27,4
15:30 Uhr

4
16.2
13:50 Uhr
8.3
00:55 Uhr
12.1
22:25 Uhr
9
20:35 Uhr
31
13:44
21.7
16:05 Uhr
10.5
23:40 Uhr

91
00:00 Uhr
50
17:20 Uhr
1022.7
23:25 Uhr

1017.2
00:00 Uhr
1019.8
0,000
00:00 Uhr
0,000
2.311
233
714
15:15 Uhr
3.3
15:00 Uhr

05:10:00
6,2
1
29,0
00:50 Uhr

4
13.7
00:05 Uhr
8.1
23:35 Uhr
10.4
08:05 Uhr
6
00:00 Uhr